Thunderstorms From: 15-12-2017 06:00 Until: 16-12-2017 06:00 warning for: Thunderstorms Level: Yellow info button

Although rather usual in this region, locally or potentially dangerous phenomena are expected. (such as local winds, summer thunderstorms, rising streams or high waves) Be aware and pay attention to the latest weather updates, especially if you carry out activities exposed to weather or close to a stream or shoreline. 


Meteo18 Weather Cam more information Meteo18 Weather Cam


warning for Thunderstorms more information blitzortung!


Rain radar more information rain snow radar


Visit our other weather sites:

Template documentation
and downloads

And another site



Weather Underground History page Text

Daily Summary for March 15, 2017 Units:  Metric    English   Both
« Previous Day
Next Day »
Daily Weekly Monthly Yearly Custom
  High: Low: Average:
Temperature: 12.6 °C 6.3 °C 8.9 °C
Dew Point: 8.7 °C 5.0 °C 6.8 °C
Humidity: 95 % 75 % 87 %
Wind Speed: 19.3 km/h 0.0 km/h 5.9 km/h
Wind Gust: 24.1 km/h - -
Wind:- - East
Pressure: 1034.1 hPa 1029.3 hPa -
Precipitation: 0.0 mm    
Historical Graphs
 
 
Tabular Data for March 15, 2017
Time Temperature Dew Point Pressure Wind Wind Speed Wind Gust Humidity Rainfall Rate (Hourly)
00:02 8.4 °C 5.0 °C 1034.1 hPa North 1.6 km/h 6.4 km/h 79 % 0.0 mm
00:07 8.3 °C 5.1 °C 1034.1 hPa Calm   6.4 km/h 80 % 0.0 mm
00:12 8.2 °C 5.1 °C 1034.1 hPa NW 1.6 km/h 4.8 km/h 81 % 0.0 mm
00:17 8.2 °C 5.3 °C 1034.1 hPa Calm   4.8 km/h 82 % 0.0 mm
00:22 8.2 °C 5.5 °C 1034.1 hPa Calm   4.8 km/h 83 % 0.0 mm
00:32 8.1 °C 5.6 °C 1034.1 hPa Calm   3.2 km/h 84 % 0.0 mm
00:37 8.0 °C 5.6 °C 1034.1 hPa Calm   1.6 km/h 85 % 0.0 mm
00:42 7.8 °C 5.4 °C 1034.1 hPa NNW 1.6 km/h 1.6 km/h 85 % 0.0 mm
00:52 7.8 °C 5.8 °C 1034.1 hPa NNW 1.6 km/h 11.3 km/h 87 % 0.0 mm
00:57 7.8 °C 5.8 °C 1034.1 hPa NNE 3.2 km/h 11.3 km/h 87 % 0.0 mm
01:02 7.7 °C 5.7 °C 1034.1 hPa NNE 1.6 km/h 11.3 km/h 87 % 0.0 mm
01:12 7.5 °C 5.6 °C 1034.1 hPa NNE 3.2 km/h 9.7 km/h 88 % 0.0 mm
01:17 7.4 °C 5.7 °C 1034.1 hPa NE 4.8 km/h 8.0 km/h 89 % 0.0 mm
01:27 7.7 °C 6.0 °C 1034.1 hPa NNE 1.6 km/h 9.7 km/h 89 % 0.0 mm
01:32 7.7 °C 6.0 °C 1033.7 hPa NNE 6.4 km/h 11.3 km/h 89 % 0.0 mm
01:42 7.4 °C 5.7 °C 1034.1 hPa NNE 3.2 km/h 11.3 km/h 89 % 0.0 mm
01:47 7.4 °C 5.9 °C 1034.1 hPa NNE 1.6 km/h 11.3 km/h 90 % 0.0 mm
01:52 7.4 °C 5.9 °C 1034.1 hPa NE 3.2 km/h 11.3 km/h 90 % 0.0 mm
01:57 7.3 °C 5.8 °C 1034.1 hPa NW 3.2 km/h 11.3 km/h 90 % 0.0 mm
02:02 7.2 °C 5.7 °C 1034.1 hPa Calm   11.3 km/h 90 % 0.0 mm
02:07 7.2 °C 5.8 °C 1034.1 hPa NNE 3.2 km/h 8.0 km/h 91 % 0.0 mm
02:12 7.1 °C 5.7 °C 1034.1 hPa North 1.6 km/h 8.0 km/h 91 % 0.0 mm
02:17 7.0 °C 5.6 °C 1034.1 hPa NE 4.8 km/h 9.7 km/h 91 % 0.0 mm
02:22 7.1 °C 5.7 °C 1034.1 hPa North 6.4 km/h 11.3 km/h 91 % 0.0 mm
02:27 7.1 °C 5.7 °C 1033.7 hPa NNW 4.8 km/h 11.3 km/h 91 % 0.0 mm
02:32 7.1 °C 5.9 °C 1033.7 hPa NNW 6.4 km/h 11.3 km/h 92 % 0.0 mm
02:37 7.1 °C 5.7 °C 1033.7 hPa NW 6.4 km/h 11.3 km/h 91 % 0.0 mm
02:42 7.0 °C 5.8 °C 1033.7 hPa NW 6.4 km/h 11.3 km/h 92 % 0.0 mm
02:47 6.9 °C 5.7 °C 1033.7 hPa NE 6.4 km/h 12.9 km/h 92 % 0.0 mm
02:57 6.7 °C 5.5 °C 1033.4 hPa North 8.0 km/h 12.9 km/h 92 % 0.0 mm
03:02 6.7 °C 5.5 °C 1033.4 hPa North 8.0 km/h 11.3 km/h 92 % 0.0 mm
03:07 6.7 °C 5.6 °C 1033.4 hPa NE 6.4 km/h 14.5 km/h 93 % 0.0 mm
03:12 6.6 °C 5.5 °C 1033.4 hPa NNE 4.8 km/h 14.5 km/h 93 % 0.0 mm
03:17 6.6 °C 5.5 °C 1033.4 hPa NW 8.0 km/h 12.9 km/h 93 % 0.0 mm
03:22 6.6 °C 5.5 °C 1033.4 hPa NNE 3.2 km/h 12.9 km/h 93 % 0.0 mm
03:27 6.7 °C 5.6 °C 1033.4 hPa NNE 3.2 km/h 14.5 km/h 93 % 0.0 mm
03:32 6.6 °C 5.5 °C 1033.4 hPa NNE 4.8 km/h 14.5 km/h 93 % 0.0 mm
03:42 6.4 °C 5.4 °C 1033.4 hPa NNE 6.4 km/h 11.3 km/h 93 % 0.0 mm
03:47 6.4 °C 5.4 °C 1033.1 hPa ENE 1.6 km/h 11.3 km/h 93 % 0.0 mm
03:52 6.3 °C 5.3 °C 1033.4 hPa NNW 4.8 km/h 11.3 km/h 93 % 0.0 mm
03:57 6.3 °C 5.4 °C 1033.1 hPa NNE 8.0 km/h 12.9 km/h 94 % 0.0 mm
04:02 6.3 °C 5.4 °C 1033.1 hPa NNW 1.6 km/h 12.9 km/h 94 % 0.0 mm
04:07 6.3 °C 5.4 °C 1033.1 hPa NNW 3.2 km/h 12.9 km/h 94 % 0.0 mm
04:17 6.4 °C 5.5 °C 1033.1 hPa NE 8.0 km/h 14.5 km/h 94 % 0.0 mm
04:22 6.4 °C 5.5 °C 1033.1 hPa NNE 4.8 km/h 14.5 km/h 94 % 0.0 mm
04:32 6.4 °C 5.5 °C 1033.1 hPa NE 9.7 km/h 11.3 km/h 94 % 0.0 mm
04:37 6.4 °C 5.5 °C 1033.1 hPa North 4.8 km/h 11.3 km/h 94 % 0.0 mm
04:42 6.4 °C 5.5 °C 1033.1 hPa NNE 6.4 km/h 16.1 km/h 94 % 0.0 mm
04:47 6.4 °C 5.5 °C 1033.1 hPa NNE 6.4 km/h 16.1 km/h 94 % 0.0 mm
04:52 6.4 °C 5.7 °C 1033.1 hPa NNE 16.1 km/h 16.1 km/h 95 % 0.0 mm
04:57 6.4 °C 5.5 °C 1033.1 hPa East 3.2 km/h 17.7 km/h 94 % 0.0 mm
05:02 6.4 °C 5.7 °C 1033.1 hPa NNE 3.2 km/h 17.7 km/h 95 % 0.0 mm
05:12 6.4 °C 5.7 °C 1033.1 hPa NNE 4.8 km/h 20.9 km/h 95 % 0.0 mm
05:17 6.4 °C 5.7 °C 1033.1 hPa NNE 3.2 km/h 20.9 km/h 95 % 0.0 mm
05:22 6.6 °C 5.9 °C 1033.1 hPa WNW 6.4 km/h 16.1 km/h 95 % 0.0 mm
05:42 6.8 °C 6.1 °C 1033.1 hPa NNW 4.8 km/h 16.1 km/h 95 % 0.0 mm
05:47 6.8 °C 6.1 °C 1033.1 hPa NNE 3.2 km/h 16.1 km/h 95 % 0.0 mm
05:52 6.9 °C 6.2 °C 1033.1 hPa NNE 1.6 km/h 12.9 km/h 95 % 0.0 mm
05:57 6.9 °C 6.2 °C 1033.1 hPa North 4.8 km/h 11.3 km/h 95 % 0.0 mm
06:02 7.0 °C 6.3 °C 1033.1 hPa Calm   9.7 km/h 95 % 0.0 mm
06:12 7.2 °C 6.5 °C 1033.1 hPa NNE 4.8 km/h 9.7 km/h 95 % 0.0 mm
06:17 7.2 °C 6.5 °C 1033.1 hPa NNW 3.2 km/h 11.3 km/h 95 % 0.0 mm
06:22 7.2 °C 6.5 °C 1033.1 hPa NE 1.6 km/h 11.3 km/h 95 % 0.0 mm
06:27 7.3 °C 6.6 °C 1033.1 hPa NE 3.2 km/h 11.3 km/h 95 % 0.0 mm
06:32 7.3 °C 6.4 °C 1033.1 hPa North 3.2 km/h 11.3 km/h 94 % 0.0 mm
06:37 7.3 °C 6.4 °C 1033.1 hPa NW 1.6 km/h 6.4 km/h 94 % 0.0 mm
06:42 7.3 °C 6.4 °C 1033.1 hPa NW 3.2 km/h 6.4 km/h 94 % 0.0 mm
06:52 7.3 °C 6.4 °C 1033.1 hPa NNE 4.8 km/h 8.0 km/h 94 % 0.0 mm
07:02 7.3 °C 6.4 °C 1033.1 hPa North 1.6 km/h 8.0 km/h 94 % 0.0 mm
07:12 7.4 °C 6.5 °C 1033.1 hPa NNE 3.2 km/h 6.4 km/h 94 % 0.0 mm
07:17 7.4 °C 6.5 °C 1033.1 hPa NE 11.3 km/h 11.3 km/h 94 % 0.0 mm
07:22 7.6 °C 6.7 °C 1033.1 hPa NE 1.6 km/h 4.8 km/h 94 % 0.0 mm
07:32 7.7 °C 6.8 °C 1033.1 hPa NNE 9.7 km/h 11.3 km/h 94 % 0.0 mm
07:42 7.8 °C 6.7 °C 1033.1 hPa NNE 8.0 km/h 11.3 km/h 93 % 0.0 mm
07:52 7.8 °C 6.7 °C 1033.1 hPa NE 11.3 km/h 12.9 km/h 93 % 0.0 mm
08:02 8.0 °C 6.8 °C 1033.1 hPa NE 9.7 km/h 16.1 km/h 92 % 0.0 mm
08:12 8.1 °C 6.9 °C 1033.1 hPa NE 8.0 km/h 16.1 km/h 92 % 0.0 mm
08:17 8.1 °C 6.9 °C 1033.1 hPa NNE 1.6 km/h 12.9 km/h 92 % 0.0 mm
08:22 8.2 °C 6.8 °C 1033.4 hPa NNE 4.8 km/h 11.3 km/h 91 % 0.0 mm
08:32 8.2 °C 6.8 °C 1033.4 hPa NE 6.4 km/h 11.3 km/h 91 % 0.0 mm
08:37 8.2 °C 6.8 °C 1033.4 hPa ENE 3.2 km/h 9.7 km/h 91 % 0.0 mm
08:42 8.3 °C 6.9 °C 1033.4 hPa NNE 4.8 km/h 9.7 km/h 91 % 0.0 mm
08:47 8.3 °C 6.9 °C 1033.4 hPa NNE 4.8 km/h 14.5 km/h 91 % 0.0 mm
08:52 8.3 °C 6.9 °C 1033.4 hPa NE 12.9 km/h 14.5 km/h 91 % 0.0 mm
08:57 8.4 °C 6.9 °C 1033.4 hPa NE 4.8 km/h 14.5 km/h 90 % 0.0 mm
09:02 8.4 °C 7.0 °C 1033.4 hPa NNE 8.0 km/h 16.1 km/h 91 % 0.0 mm
09:07 8.4 °C 6.9 °C 1033.4 hPa NNE 8.0 km/h 16.1 km/h 90 % 0.0 mm
09:12 8.6 °C 7.1 °C 1033.7 hPa NNE 6.4 km/h 16.1 km/h 90 % 0.0 mm
09:17 8.6 °C 7.1 °C 1033.7 hPa NE 8.0 km/h 12.9 km/h 90 % 0.0 mm
09:22 8.7 °C 7.2 °C 1033.7 hPa NE 8.0 km/h 12.9 km/h 90 % 0.0 mm
09:32 8.7 °C 7.0 °C 1033.7 hPa NE 9.7 km/h 14.5 km/h 89 % 0.0 mm
09:37 8.8 °C 7.1 °C 1033.7 hPa ENE 8.0 km/h 16.1 km/h 89 % 0.0 mm
09:42 8.8 °C 6.9 °C 1033.7 hPa NNE 12.9 km/h 17.7 km/h 88 % 0.0 mm
09:47 8.8 °C 6.8 °C 1033.7 hPa NNE 16.1 km/h 19.3 km/h 87 % 0.0 mm
09:52 8.8 °C 6.8 °C 1033.7 hPa NNE 8.0 km/h 20.9 km/h 87 % 0.0 mm
09:57 8.9 °C 7.0 °C 1033.7 hPa NE 9.7 km/h 20.9 km/h 88 % 0.0 mm
10:02 8.9 °C 6.9 °C 1033.7 hPa NNE 12.9 km/h 20.9 km/h 87 % 0.0 mm
10:12 9.0 °C 7.0 °C 1033.7 hPa NE 8.0 km/h 19.3 km/h 87 % 0.0 mm
10:17 9.1 °C 6.9 °C 1033.7 hPa NNE 6.4 km/h 19.3 km/h 86 % 0.0 mm
10:22 9.2 °C 7.1 °C 1033.7 hPa NE 3.2 km/h 17.7 km/h 87 % 0.0 mm
10:27 9.2 °C 7.0 °C 1033.7 hPa ENE 12.9 km/h 17.7 km/h 86 % 0.0 mm
10:32 9.3 °C 7.1 °C 1033.7 hPa NE 4.8 km/h 17.7 km/h 86 % 0.0 mm
10:42 9.3 °C 6.9 °C 1033.7 hPa NNE 8.0 km/h 16.1 km/h 85 % 0.0 mm
10:47 9.4 °C 7.0 °C 1033.7 hPa NE 3.2 km/h 16.1 km/h 85 % 0.0 mm
10:52 9.5 °C 7.1 °C 1033.7 hPa NE 4.8 km/h 17.7 km/h 85 % 0.0 mm
10:57 9.6 °C 7.2 °C 1033.7 hPa NNE 6.4 km/h 17.7 km/h 85 % 0.0 mm
11:02 9.5 °C 6.9 °C 1033.7 hPa North 11.3 km/h 17.7 km/h 84 % 0.0 mm
11:12 9.7 °C 7.1 °C 1033.7 hPa ENE 4.8 km/h 20.9 km/h 84 % 0.0 mm
11:17 9.6 °C 7.0 °C 1033.7 hPa NE 6.4 km/h 17.7 km/h 84 % 0.0 mm
11:22 9.6 °C 7.0 °C 1033.7 hPa NE 6.4 km/h 19.3 km/h 84 % 0.0 mm
11:27 9.5 °C 6.9 °C 1033.7 hPa North 8.0 km/h 19.3 km/h 84 % 0.0 mm
11:32 9.6 °C 7.0 °C 1033.7 hPa North 6.4 km/h 20.9 km/h 84 % 0.0 mm
11:42 9.7 °C 7.1 °C 1033.7 hPa East 11.3 km/h 17.7 km/h 84 % 0.0 mm
11:47 9.7 °C 7.3 °C 1033.7 hPa ENE 4.8 km/h 17.7 km/h 85 % 0.0 mm
11:52 9.7 °C 7.1 °C 1033.7 hPa NE 9.7 km/h 17.7 km/h 84 % 0.0 mm
11:57 9.6 °C 7.2 °C 1033.4 hPa NE 16.1 km/h 19.3 km/h 85 % 0.0 mm
12:02 9.5 °C 7.1 °C 1033.4 hPa NNE 12.9 km/h 19.3 km/h 85 % 0.0 mm
12:07 9.4 °C 7.0 °C 1033.4 hPa North 8.0 km/h 19.3 km/h 85 % 0.0 mm
12:12 9.4 °C 7.0 °C 1033.4 hPa NE 19.3 km/h 19.3 km/h 85 % 0.0 mm
12:17 9.3 °C 6.9 °C 1033.4 hPa NNE 6.4 km/h 19.3 km/h 85 % 0.0 mm
12:22 9.4 °C 7.2 °C 1033.4 hPa NE 6.4 km/h 22.5 km/h 86 % 0.0 mm
12:27 9.4 °C 7.2 °C 1033.4 hPa North 9.7 km/h 22.5 km/h 86 % 0.0 mm
12:32 9.4 °C 7.2 °C 1033.4 hPa NNE 4.8 km/h 22.5 km/h 86 % 0.0 mm
12:37 9.3 °C 6.9 °C 1033.4 hPa NE 11.3 km/h 16.1 km/h 85 % 0.0 mm
12:42 9.3 °C 7.1 °C 1033.4 hPa NE 8.0 km/h 19.3 km/h 86 % 0.0 mm
12:52 9.4 °C 7.3 °C 1033.1 hPa NNE 9.7 km/h 17.7 km/h 87 % 0.0 mm
12:57 9.4 °C 7.3 °C 1033.1 hPa NE 6.4 km/h 14.5 km/h 87 % 0.0 mm
13:02 9.4 °C 7.2 °C 1033.1 hPa NE 3.2 km/h 14.5 km/h 86 % 0.0 mm
13:12 9.4 °C 7.2 °C 1033.1 hPa NNE 8.0 km/h 14.5 km/h 86 % 0.0 mm
13:17 9.4 °C 7.0 °C 1033.1 hPa NNE 12.9 km/h 17.7 km/h 85 % 0.0 mm
13:22 9.4 °C 7.0 °C 1033.1 hPa NNW 9.7 km/h 17.7 km/h 85 % 0.0 mm
13:27 9.4 °C 7.0 °C 1033.1 hPa NE 11.3 km/h 17.7 km/h 85 % 0.0 mm
13:37 9.4 °C 7.0 °C 1033.1 hPa NNW 4.8 km/h 24.1 km/h 85 % 0.0 mm
13:42 9.4 °C 7.0 °C 1032.7 hPa North 4.8 km/h 24.1 km/h 85 % 0.0 mm
13:47 9.4 °C 7.0 °C 1032.7 hPa North 3.2 km/h 24.1 km/h 85 % 0.0 mm
13:57 9.6 °C 7.0 °C 1032.7 hPa NNE 14.5 km/h 19.3 km/h 84 % 0.0 mm
14:02 9.7 °C 7.1 °C 1032.7 hPa NE 6.4 km/h 19.3 km/h 84 % 0.0 mm
14:07 9.8 °C 7.2 °C 1032.7 hPa NE 12.9 km/h 17.7 km/h 84 % 0.0 mm
14:12 9.8 °C 7.2 °C 1032.4 hPa NNE 8.0 km/h 17.7 km/h 84 % 0.0 mm
14:17 9.9 °C 7.1 °C 1032.4 hPa NE 12.9 km/h 16.1 km/h 83 % 0.0 mm
14:22 9.8 °C 7.1 °C 1032.4 hPa ENE 11.3 km/h 17.7 km/h 83 % 0.0 mm
14:27 9.9 °C 7.3 °C 1032.1 hPa NNE 8.0 km/h 17.7 km/h 84 % 0.0 mm
14:32 10.1 °C 7.3 °C 1032.1 hPa ENE 3.2 km/h 17.7 km/h 83 % 0.0 mm
14:37 10.1 °C 7.2 °C 1032.1 hPa ENE 4.8 km/h 17.7 km/h 82 % 0.0 mm
14:42 10.2 °C 7.4 °C 1032.1 hPa NNE 6.4 km/h 17.7 km/h 83 % 0.0 mm
14:47 10.3 °C 7.5 °C 1032.1 hPa NE 6.4 km/h 14.5 km/h 83 % 0.0 mm
14:57 10.4 °C 7.5 °C 1032.1 hPa ENE 6.4 km/h 14.5 km/h 82 % 0.0 mm
15:02 10.5 °C 7.6 °C 1031.7 hPa ENE 12.9 km/h 17.7 km/h 82 % 0.0 mm
15:07 10.6 °C 7.5 °C 1031.7 hPa North 17.7 km/h 17.7 km/h 81 % 0.0 mm
15:17 10.8 °C 7.7 °C 1031.7 hPa NE 8.0 km/h 19.3 km/h 81 % 0.0 mm
15:22 10.7 °C 7.6 °C 1031.7 hPa ENE 8.0 km/h 19.3 km/h 81 % 0.0 mm
15:32 10.8 °C 7.7 °C 1031.7 hPa North 11.3 km/h 20.9 km/h 81 % 0.0 mm
15:37 10.8 °C 7.5 °C 1031.4 hPa NE 9.7 km/h 20.9 km/h 80 % 0.0 mm
15:42 10.9 °C 7.6 °C 1031.4 hPa East 3.2 km/h 20.9 km/h 80 % 0.0 mm
15:47 11.1 °C 8.0 °C 1031.4 hPa ENE 4.8 km/h 17.7 km/h 81 % 0.0 mm
15:57 11.6 °C 8.3 °C 1031.0 hPa East 6.4 km/h 17.7 km/h 80 % 0.0 mm
16:02 11.5 °C 8.0 °C 1031.0 hPa ENE 6.4 km/h 17.7 km/h 79 % 0.0 mm
16:07 11.6 °C 8.1 °C 1031.0 hPa NNE 9.7 km/h 17.7 km/h 79 % 0.0 mm
16:12 11.6 °C 7.7 °C 1031.0 hPa NE 6.4 km/h 16.1 km/h 77 % 0.0 mm
16:17 11.7 °C 7.8 °C 1031.0 hPa ENE 3.2 km/h 14.5 km/h 77 % 0.0 mm
16:22 11.7 °C 8.0 °C 1030.7 hPa ENE 6.4 km/h 14.5 km/h 78 % 0.0 mm
16:27 11.8 °C 7.9 °C 1031.0 hPa ENE 6.4 km/h 12.9 km/h 77 % 0.0 mm
16:32 11.9 °C 8.2 °C 1030.7 hPa NNE 4.8 km/h 11.3 km/h 78 % 0.0 mm
16:37 12.0 °C 8.3 °C 1030.7 hPa NNE 6.4 km/h 11.3 km/h 78 % 0.0 mm
16:42 12.1 °C 8.2 °C 1030.7 hPa NNE 8.0 km/h 14.5 km/h 77 % 0.0 mm
16:47 12.2 °C 8.1 °C 1030.7 hPa NE 9.7 km/h 17.7 km/h 76 % 0.0 mm
16:52 12.3 °C 8.2 °C 1030.7 hPa NNW 4.8 km/h 17.7 km/h 76 % 0.0 mm
16:57 12.3 °C 8.2 °C 1030.7 hPa ENE 1.6 km/h 14.5 km/h 76 % 0.0 mm
17:02 12.4 °C 8.3 °C 1030.7 hPa NNW 8.0 km/h 12.9 km/h 76 % 0.0 mm
17:07 12.4 °C 8.1 °C 1030.4 hPa NNE 6.4 km/h 14.5 km/h 75 % 0.0 mm
17:17 12.6 °C 8.3 °C 1030.4 hPa NNE 4.8 km/h 14.5 km/h 75 % 0.0 mm
17:22 12.6 °C 8.5 °C 1030.4 hPa ENE 8.0 km/h 11.3 km/h 76 % 0.0 mm
17:27 12.6 °C 8.5 °C 1030.4 hPa ENE 3.2 km/h 9.7 km/h 76 % 0.0 mm
17:32 12.6 °C 8.5 °C 1030.4 hPa ENE 4.8 km/h 9.7 km/h 76 % 0.0 mm
17:37 12.5 °C 8.6 °C 1030.4 hPa NE 4.8 km/h 9.7 km/h 77 % 0.0 mm
17:42 12.4 °C 8.5 °C 1030.4 hPa NE 8.0 km/h 8.0 km/h 77 % 0.0 mm
17:47 12.4 °C 8.5 °C 1030.4 hPa East 6.4 km/h 11.3 km/h 77 % 0.0 mm
17:52 12.3 °C 8.6 °C 1030.0 hPa ENE 4.8 km/h 11.3 km/h 78 % 0.0 mm
17:57 12.2 °C 8.7 °C 1030.0 hPa ENE 1.6 km/h 11.3 km/h 79 % 0.0 mm
18:02 12.2 °C 8.5 °C 1030.0 hPa East 4.8 km/h 11.3 km/h 78 % 0.0 mm
18:07 12.2 °C 8.5 °C 1030.0 hPa NE 4.8 km/h 8.0 km/h 78 % 0.0 mm
18:12 12.2 °C 8.7 °C 1030.0 hPa NE 3.2 km/h 8.0 km/h 79 % 0.0 mm
18:17 12.0 °C 8.5 °C 1030.0 hPa ENE 1.6 km/h 8.0 km/h 79 % 0.0 mm
18:27 11.8 °C 8.5 °C 1030.0 hPa NE 1.6 km/h 6.4 km/h 80 % 0.0 mm
18:32 11.6 °C 8.3 °C 1030.0 hPa NE 3.2 km/h 6.4 km/h 80 % 0.0 mm
18:42 11.3 °C 8.0 °C 1030.4 hPa NE 4.8 km/h 11.3 km/h 80 % 0.0 mm
18:47 11.1 °C 8.0 °C 1030.0 hPa NE 3.2 km/h 11.3 km/h 81 % 0.0 mm
18:52 10.9 °C 7.8 °C 1030.0 hPa Calm   8.0 km/h 81 % 0.0 mm
18:57 10.8 °C 7.9 °C 1030.0 hPa NE 1.6 km/h 6.4 km/h 82 % 0.0 mm
19:02 10.7 °C 7.8 °C 1030.0 hPa NE 1.6 km/h 6.4 km/h 82 % 0.0 mm
19:07 10.6 °C 7.7 °C 1030.0 hPa Calm   6.4 km/h 82 % 0.0 mm
19:12 10.4 °C 7.6 °C 1030.0 hPa NE 3.2 km/h 6.4 km/h 83 % 0.0 mm
19:17 10.3 °C 7.5 °C 1030.0 hPa NE 1.6 km/h 4.8 km/h 83 % 0.0 mm
19:22 10.2 °C 7.4 °C 1030.0 hPa NE 6.4 km/h 6.4 km/h 83 % 0.0 mm
19:27 10.2 °C 7.6 °C 1030.0 hPa NE 4.8 km/h 9.7 km/h 84 % 0.0 mm
19:32 10.2 °C 7.6 °C 1030.0 hPa NE 4.8 km/h 9.7 km/h 84 % 0.0 mm
19:37 10.1 °C 7.3 °C 1030.0 hPa North 1.6 km/h 9.7 km/h 83 % 0.0 mm
19:42 9.9 °C 7.3 °C 1030.0 hPa North 1.6 km/h 9.7 km/h 84 % 0.0 mm
19:47 9.7 °C 7.3 °C 1030.0 hPa NNW 1.6 km/h 9.7 km/h 85 % 0.0 mm
19:52 9.6 °C 7.2 °C 1030.0 hPa North 1.6 km/h 3.2 km/h 85 % 0.0 mm
19:57 9.4 °C 7.0 °C 1030.0 hPa Calm   4.8 km/h 85 % 0.0 mm
20:02 9.3 °C 7.1 °C 1030.0 hPa Calm   4.8 km/h 86 % 0.0 mm
20:07 9.2 °C 7.0 °C 1030.0 hPa NNW 1.6 km/h 4.8 km/h 86 % 0.0 mm
20:12 9.1 °C 7.1 °C 1030.0 hPa ENE 3.2 km/h 4.8 km/h 87 % 0.0 mm
20:17 9.1 °C 7.1 °C 1030.0 hPa North 6.4 km/h 6.4 km/h 87 % 0.0 mm
20:22 9.2 °C 7.1 °C 1030.0 hPa NNE 14.5 km/h 14.5 km/h 87 % 0.0 mm
20:27 9.3 °C 7.2 °C 1030.0 hPa NE 11.3 km/h 14.5 km/h 87 % 0.0 mm
20:32 9.4 °C 7.2 °C 1030.0 hPa NNE 12.9 km/h 14.5 km/h 86 % 0.0 mm
20:37 9.5 °C 7.3 °C 1030.0 hPa NNE 11.3 km/h 17.7 km/h 86 % 0.0 mm
20:42 9.6 °C 7.4 °C 1030.0 hPa NNE 9.7 km/h 19.3 km/h 86 % 0.0 mm
20:47 9.4 °C 7.2 °C 1030.0 hPa NNE 12.9 km/h 19.3 km/h 86 % 0.0 mm
20:57 9.4 °C 7.3 °C 1030.0 hPa NE 6.4 km/h 17.7 km/h 87 % 0.0 mm
21:02 9.4 °C 7.3 °C 1030.0 hPa North 4.8 km/h 17.7 km/h 87 % 0.0 mm
21:07 9.3 °C 7.2 °C 1030.0 hPa NNE 6.4 km/h 17.7 km/h 87 % 0.0 mm
21:12 9.1 °C 7.1 °C 1030.0 hPa NNE 4.8 km/h 16.1 km/h 87 % 0.0 mm
21:17 9.0 °C 7.1 °C 1030.0 hPa NE 3.2 km/h 16.1 km/h 88 % 0.0 mm
21:22 8.8 °C 6.9 °C 1030.0 hPa Calm   11.3 km/h 88 % 0.0 mm
21:27 8.8 °C 7.1 °C 1030.0 hPa NNE 6.4 km/h 11.3 km/h 89 % 0.0 mm
21:32 8.9 °C 7.0 °C 1030.0 hPa NNE 6.4 km/h 11.3 km/h 88 % 0.0 mm
21:37 8.9 °C 7.0 °C 1030.0 hPa NE 9.7 km/h 16.1 km/h 88 % 0.0 mm
21:42 9.0 °C 7.1 °C 1030.0 hPa NE 3.2 km/h 16.1 km/h 88 % 0.0 mm
21:47 8.9 °C 7.0 °C 1030.0 hPa NNE 6.4 km/h 16.1 km/h 88 % 0.0 mm
21:52 8.9 °C 7.0 °C 1030.0 hPa NNE 8.0 km/h 19.3 km/h 88 % 0.0 mm
22:02 9.1 °C 7.1 °C 1030.0 hPa NE 6.4 km/h 19.3 km/h 87 % 0.0 mm
22:07 9.0 °C 7.0 °C 1030.0 hPa NNE 14.5 km/h 19.3 km/h 87 % 0.0 mm
22:12 9.0 °C 7.0 °C 1030.0 hPa NE 14.5 km/h 19.3 km/h 87 % 0.0 mm
22:17 8.9 °C 6.9 °C 1030.0 hPa North 4.8 km/h 17.7 km/h 87 % 0.0 mm
22:22 8.8 °C 6.8 °C 1030.0 hPa NE 12.9 km/h 17.7 km/h 87 % 0.0 mm
22:27 8.8 °C 6.8 °C 1030.0 hPa NNE 8.0 km/h 17.7 km/h 87 % 0.0 mm
22:32 8.7 °C 6.7 °C 1030.0 hPa North 9.7 km/h 16.1 km/h 87 % 0.0 mm
22:37 8.6 °C 6.7 °C 1030.0 hPa NNE 11.3 km/h 16.1 km/h 88 % 0.0 mm
22:42 8.6 °C 6.7 °C 1030.0 hPa NE 8.0 km/h 14.5 km/h 88 % 0.0 mm
22:47 8.4 °C 6.5 °C 1029.7 hPa NNE 9.7 km/h 14.5 km/h 88 % 0.0 mm
22:52 8.3 °C 6.4 °C 1029.7 hPa NNE 6.4 km/h 12.9 km/h 88 % 0.0 mm
22:57 8.2 °C 6.5 °C 1029.7 hPa NNW 1.6 km/h 12.9 km/h 89 % 0.0 mm
23:02 8.1 °C 6.4 °C 1029.7 hPa North 1.6 km/h 11.3 km/h 89 % 0.0 mm
23:07 7.9 °C 6.2 °C 1029.7 hPa NNE 6.4 km/h 9.7 km/h 89 % 0.0 mm
23:12 7.8 °C 6.3 °C 1029.7 hPa NE 6.4 km/h 9.7 km/h 90 % 0.0 mm
23:17 7.7 °C 6.2 °C 1029.7 hPa Calm   8.0 km/h 90 % 0.0 mm
23:22 7.6 °C 6.1 °C 1029.3 hPa NNE 3.2 km/h 8.0 km/h 90 % 0.0 mm
23:32 7.4 °C 5.9 °C 1029.3 hPa NNW 1.6 km/h 4.8 km/h 90 % 0.0 mm
23:37 7.4 °C 5.9 °C 1029.3 hPa Calm   6.4 km/h 90 % 0.0 mm
23:42 7.3 °C 5.8 °C 1029.3 hPa NNW 3.2 km/h 6.4 km/h 90 % 0.0 mm
23:47 7.3 °C 5.8 °C 1029.3 hPa North 3.2 km/h 6.4 km/h 90 % 0.0 mm
23:52 7.2 °C 5.8 °C 1029.3 hPa Calm   4.8 km/h 91 % 0.0 mm
23:57 7.1 °C 5.7 °C 1029.3 hPa Calm   4.8 km/h 91 % 0.0 mm
Meteo18
Compliments of Weather Underground - 4 mb

Script developed by  Jim McMurry - jmcmurry@mwt.net Adapted for the template by  Wim van der Kuil - Leuven-Template.eu

You find our weather info also at:

European Weather Network

Weather Underground

Equipment we use:

Weather-station
Davis Vue

Weather-program
Meteohub

Weather-server
Raspberry PI 2 B+

Provider
1 and 1

Davis Vue

Meteohub

Raspberry PI 2 B+

1 and 1